Location: Shepherdstown, WV
(39.4326°N, 77.8042°W)
Time: 01:01:09
(UTC-04:00)

Tiros 1 despin weight - All Passes

Search period start: 01 August 2021 00:00
Search period end: 11 August 2021 00:00
Orbit: 593 x 642 km, 48.2° (Epoch: 31 July)

Date Brightness Start Highest point End Pass type
(mag) Time Alt. Az. Time Alt. Az. Time Alt. Az.
01 Aug - 13:24:19 10° SSW 13:28:39 40° SE 13:33:03 10° ENE daylight
01 Aug - 15:05:38 10° W 15:10:11 50° NNW 15:14:46 10° NE daylight
01 Aug - 16:48:27 10° WNW 16:52:30 28° N 16:56:32 10° NE daylight
01 Aug - 18:30:35 10° NW 18:34:57 37° NNE 18:39:17 10° E daylight
01 Aug - 20:12:07 10° WNW 20:16:47 70° SW 20:21:22 10° SE daylight
01 Aug - 21:55:41 10° WSW 21:57:40 13° SW 21:59:38 10° SSW visible
02 Aug - 12:01:28 10° SSE 12:03:52 14° SE 12:06:17 10° E daylight
02 Aug - 13:40:10 10° SW 13:44:49 76° SE 13:49:30 10° ENE daylight
02 Aug - 15:22:22 10° W 15:26:41 36° NNW 15:31:01 10° NE daylight
02 Aug - 17:05:05 10° NW 17:09:09 28° N 17:13:12 10° ENE daylight
02 Aug - 18:46:50 10° NW 18:51:26 52° NNE 18:55:58 10° ESE daylight
02 Aug - 20:28:37 10° WNW 20:32:55 37° SW 20:37:09 10° SSE daylight
03 Aug - 12:15:53 10° SSW 12:19:48 28° SE 12:23:46 10° ENE daylight
03 Aug - 13:56:29 10° WSW 14:01:06 65° NNW 14:05:46 10° NE daylight
03 Aug - 15:39:10 10° WNW 15:43:17 29° N 15:47:24 10° NE daylight
03 Aug - 17:21:33 10° NW 17:25:47 32° NNE 17:29:59 10° ENE daylight
03 Aug - 19:03:05 10° WNW 19:07:48 84° NNE 19:12:27 10° ESE daylight
03 Aug - 20:45:35 10° W 20:48:54 19° SW 20:52:12 10° S visible
04 Aug - 12:31:23 10° SW 12:35:52 52° SE 12:40:25 10° ENE daylight
04 Aug - 14:13:05 10° W 14:17:32 43° NNW 14:22:02 10° NE daylight
04 Aug - 15:55:54 10° WNW 15:59:55 27° N 16:03:58 10° ENE daylight
04 Aug - 17:37:51 10° NW 17:42:19 42° NNE 17:46:46 10° E daylight
04 Aug - 19:19:27 10° WNW 19:24:01 55° SW 19:28:32 10° SE daylight
05 Aug - 11:07:49 10° S 11:11:00 19° SE 11:14:12 10° E daylight
05 Aug - 12:47:26 10° WSW 12:52:04 87° NW 12:56:47 10° ENE daylight
05 Aug - 14:29:52 10° WNW 14:34:04 32° NNW 14:38:19 10° NE daylight
05 Aug - 16:12:27 10° NW 16:16:34 29° N 16:20:40 10° ENE daylight
05 Aug - 17:54:06 10° NW 17:58:46 63° NNE 18:03:23 10° ESE daylight
05 Aug - 19:36:04 10° WNW 19:40:06 29° SW 19:44:05 10° SSE daylight
06 Aug - 11:22:47 10° SSW 11:26:59 35° SE 11:31:14 10° ENE daylight
06 Aug - 13:03:53 10° WSW 13:08:25 54° NNW 13:13:02 10° NE daylight
06 Aug - 14:46:39 10° WNW 14:50:42 28° N 14:54:46 10° NE daylight
06 Aug - 16:28:51 10° NW 16:33:10 35° NNE 16:37:29 10° E daylight
06 Aug - 18:10:22 10° WNW 18:15:04 79° SW 18:19:43 10° SE daylight
06 Aug - 19:53:26 10° W 19:56:02 15° SW 19:58:37 10° SSW daylight
07 Aug - 10:00:33 10° SSE 10:02:14 12° SE 10:03:57 10° ESE daylight
07 Aug - 11:38:32 10° SW 11:43:06 67° SE 11:47:44 10° ENE daylight
07 Aug - 13:20:34 10° W 13:24:54 38° NNW 13:29:17 10° NE daylight
07 Aug - 15:03:19 10° WNW 15:07:21 28° N 15:11:23 10° ENE daylight
07 Aug - 16:45:07 10° NW 16:49:40 48° NNE 16:54:13 10° E daylight
07 Aug - 18:26:48 10° WNW 18:31:14 42° SW 18:35:37 10° SSE daylight
08 Aug - 10:14:28 10° S 10:18:08 24° SE 10:21:52 10° E daylight
08 Aug - 11:54:46 10° WSW 11:59:22 71° NNW 12:04:03 10° NE daylight
08 Aug - 13:37:22 10° WNW 13:41:29 30° N 13:45:38 10° NE daylight
08 Aug - 15:19:48 10° NW 15:23:58 31° N 15:28:10 10° ENE daylight
08 Aug - 17:01:21 10° WNW 17:06:03 77° NNE 17:10:44 10° ESE daylight
08 Aug - 18:43:37 10° W 18:47:15 22° SW 18:50:51 10° S daylight
09 Aug - 10:29:48 10° SSW 10:34:10 46° SE 10:38:37 10° ENE daylight
09 Aug - 12:11:19 10° W 12:15:46 46° NNW 12:20:17 10° NE daylight
09 Aug - 13:54:06 10° WNW 13:58:07 27° N 14:02:09 10° ENE daylight
09 Aug - 15:36:08 10° NW 15:40:33 39° NNE 15:44:57 10° E daylight
09 Aug - 17:17:40 10° WNW 17:22:18 62° SW 17:26:55 10° SE daylight
09 Aug - 19:01:57 10° WSW 19:03:08 11° SW 19:04:19 10° SW daylight
10 Aug - 09:06:36 10° S 09:09:21 16° SE 09:12:09 10° E daylight
10 Aug - 10:45:46 10° SW 10:50:21 84° SSE 10:55:02 10° ENE daylight
10 Aug - 12:28:04 10° W 12:32:17 34° NNW 12:36:33 10° NE daylight
10 Aug - 14:10:42 10° NW 14:14:46 28° N 14:18:51 10° ENE daylight
10 Aug - 15:52:22 10° NW 15:57:00 57° NNE 16:01:37 10° ESE daylight
10 Aug - 17:34:13 10° WNW 17:38:25 33° SW 17:42:35 10° SSE daylight
